Flag for Canada Weather past 2 weeks in Saguenay, Quebec, Canada

Now
52 °F

Cool.


Feels Like: 52 °F
Forecast: 52 / 72 °F
Wind: 2 mph from East

Location: Jonquiere Airport

Current Time: Aug 30, 2014 at 7:14:59 AM

Latest Report: Aug 30, 2014 at 6:00 AM


Visibility: N/A

Pressure: 30.09 "Hg

Humidity: 90%

Dew point: 49 °F

Location of SaguenayLocation

Historic Weather in Saguenay — Graph

°F

Saguenay temperature yesterday

Maximum temperature yesterday: 71 °F (at 5:00 PM)
Minimum temperature yesterday: 46 °F (at 6:00 AM)
Average temperature yesterday: 57 °F

Past Weeks' High & Low Weather Summary

 TemperatureHumidityPressure
High86 °F (Aug 25, 3:00 PM)100% (Aug 25, 6:00 AM)30.25 "Hg (Aug 25, 6:00 AM)
Low46 °F (Aug 29, 6:00 AM)32% (Aug 25, 3:00 PM)29.76 "Hg (Aug 26, 10:00 PM)
Average64 °F77%30.00 "Hg
* Reported Aug 15 6:00 AM — Aug 30 6:00 AM, Saguenay, Weather by CustomWeather, © 2014

Note: Actual official high and low records may vary slightly from our data, if they occured in-between our weather recording intervals... More about our weather records

Advertising

Saguenay weather history for previous 24 hours

 ConditionsComfort  
Time TempWeatherWind HumidityBarometerVisibility
6:00 AM
Aug 30
52 °FCool.2 mph90%30.09 "HgN/A
5:00 AM54 °FCool.7 mph86%30.11 "HgN/A
4:00 AM54 °FCool.5 mph86%30.12 "HgN/A
3:00 AM53 °FCool.6 mph92%30.13 "HgN/A
2:00 AM52 °FCool.3 mph88%30.14 "HgN/A
1:00 AM54 °FCool.8 mph86%30.14 "HgN/A
12:00 AM55 °FCool.7 mph86%30.15 "HgN/A
11:00 PM
Aug 29
53 °FCool.6 mph91%30.16 "HgN/A
10:00 PM57 °FCool.5 mph82%30.16 "HgN/A
9:00 PM58 °FCool.8 mph72%30.16 "HgN/A
8:00 PM61 °FCool.7 mph70%30.14 "HgN/A
7:00 PM64 °FMild.3 mph66%30.15 "HgN/A
6:00 PM69 °FMild.3 mph53%30.14 "HgN/A
5:00 PM71 °FMild.5 mph49%30.15 "HgN/A
3:00 PM70 °FMild.2 mph45%30.18 "HgN/A
2:00 PM67 °FMild.2 mph54%30.19 "HgN/A
1:00 PM66 °FMild.3 mph68%30.22 "HgN/A
12:00 PM64 °FMild.3 mph76%30.23 "HgN/A
11:00 AM60 °FCool.3 mph88%30.24 "HgN/A
10:00 AM56 °FCool.1 mph99%30.25 "HgN/A
9:00 AM54 °FCool.2 mph99%30.24 "HgN/A
8:00 AM50 °FCool.3 mph98%30.22 "HgN/A
7:00 AM47 °FCool.6 mph99%30.20 "HgN/A
Weather by CustomWeather, © 2014

See weather overviewHow to use our weather pages